sat.trackr.live / text

‹ back to catalog

YAOGAN-16 01B

NORAD 39012 · 2012-066B

PAYLOAD ACTIVE UNKNOWN

§ Identity

Operator
Country
PRC
Launch date
2012-11-25
Launch site
JSC
Launch vehicle
Mass (kg)
RCS (m²)
2.69

External: N2YO · Heavens-Above · Gunter

§ Orbital elements

Epoch: 2026-05-24T22:07:42.381120Z

Period
107.02 min
Inclination
63.3554°
Eccentricity
0.0433839
Mean motion
13.45512117 rev/d
Perigee alt
764.9 km
Apogee alt
1,412.8 km
Semi-major
7,467.0 km
B*
3.3404e-5
RAAN
350.1137°
Arg perigee
26.7028°
Mean anomaly
335.5640°
Rev number
66,297

§ Raw data

YAOGAN-16 01B1 39012U 12066B   26144.92201830 -.00000056  00000+0  33404-4 0  99912 39012  63.3554 350.1137 0433839  26.7028 335.5640 13.45512117662974

JSON: /api/v1/satellites/39012 · /tle

For live sub-satellite position, see the globe view (requires WebGL).

§ Visibility from observer

Set your observer location to see the next 7 days of passes ≥ 10°. The values pass through the URL so the page stays shareable.

No JS? Fill the form by hand. The geolocation button needs JavaScript.